Flag for Spain Weather past 2 weeks in Valencia, Spain

Now
45 °F

Passing clouds.


Feels Like: 39 °F
Forecast: 46 / 58 °F
Wind: 10 mph from Southwest

Location: Valencia / Aeropuerto

Current Time: Feb 1, 2015 at 9:07:17 AM

Latest Report: Feb 1, 2015 at 8:30 AM


Visibility: N/A

Pressure: 29.77 "Hg

Humidity: 49%

Dew point: 27 °F

Location of ValenciaLocation

Historic Weather in Valencia — Graph

°F

Valencia temperature yesterday

Maximum temperature yesterday: 63 °F (at 12:00 AM)
Minimum temperature yesterday: 46 °F (at 9:30 PM)
Average temperature yesterday: 57 °F

Past Weeks' High & Low Weather Summary

 TemperatureHumidityPressure
High68 °F (Jan 30, 12:30 PM)100% (Jan 19, 5:00 AM)30.33 "Hg (Jan 19, 5:00 AM)
Low34 °F (Jan 18, 8:30 AM)15% (Jan 25, 1:00 PM)29.18 "Hg (Jan 31, 3:30 AM)
Average50 °F56%29.93 "Hg
* Reported Jan 17 7:00 AM — Feb 1 7:30 AM, Valencia, Weather by CustomWeather, © 2014

Note: Actual official high and low records may vary slightly from our data, if they occured in-between our weather recording intervals... More about our weather records

Advertising

Valencia weather history for previous 24 hours

 ConditionsComfort  
Time TempWeatherWind HumidityBarometerVisibility
7:30 AM
Feb 1
46 °FClear.10 mph43%29.74 "Hg10 mi
7:00 AM45 °FClear.13 mph53%29.71 "Hg10 mi
6:30 AM45 °FClear.17 mph53%29.71 "Hg10 mi
6:00 AM45 °FClear.14 mph53%29.68 "Hg10 mi
5:30 AM45 °FClear.13 mph53%29.68 "Hg10 mi
5:00 AM45 °FClear.14 mph53%29.68 "Hg10 mi
4:30 AM46 °FClear.15 mph43%29.68 "Hg10 mi
4:00 AM46 °FClear.16 mph43%29.68 "Hg10 mi
3:30 AM46 °FClear.15 mph43%29.68 "Hg10 mi
3:00 AM46 °FClear.12 mph43%29.68 "Hg10 mi
2:30 AM46 °FClear.12 mph46%29.68 "Hg10 mi
2:00 AM48 °FClear.17 mph40%29.68 "Hg10 mi
1:30 AM46 °FClear.12 mph50%29.65 "Hg10 mi
1:00 AM43 °FPassing clouds.3 mph66%29.65 "HgN/A
12:30 AM45 °FPassing clouds.6 mph61%29.65 "HgN/A
12:00 AM46 °FClear.8 mph53%29.62 "Hg10 mi
11:30 PM
Jan 31
46 °FPassing clouds.9 mph62%29.62 "HgN/A
11:00 PM46 °FClear.9 mph62%29.62 "Hg10 mi
10:30 PM46 °FClear.12 mph62%29.59 "Hg10 mi
9:30 PM46 °FClear.12 mph62%29.59 "Hg10 mi
9:00 PM48 °FClear.10 mph58%29.59 "Hg10 mi
8:30 PM50 °FPassing clouds.13 mph54%29.56 "HgN/A
8:00 PM52 °FPassing clouds.20 mph47%29.56 "HgN/A
7:30 PM54 °FPassing clouds.22 mph44%29.53 "HgN/A
7:00 PM54 °FPassing clouds.21 mph41%29.50 "HgN/A
6:30 PM55 °FPassing clouds.25 mph36%29.47 "HgN/A
6:00 PM55 °FPassing clouds.26 mph33%29.45 "HgN/A
5:30 PM57 °FPassing clouds.28 mph33%29.45 "HgN/A
5:00 PM59 °FPassing clouds.25 mph31%29.42 "HgN/A
4:30 PM59 °FPassing clouds.24 mph34%29.42 "HgN/A
4:00 PM61 °FPassing clouds.17 mph31%29.42 "HgN/A
3:30 PM59 °FPassing clouds.24 mph36%29.42 "HgN/A
3:00 PM59 °FPassing clouds.24 mph42%29.39 "HgN/A
2:30 PM61 °FPassing clouds.23 mph36%29.39 "HgN/A
2:00 PM59 °FPassing clouds.28 mph34%29.39 "HgN/A
1:30 PM59 °FScattered clouds.25 mph39%29.39 "HgN/A
1:00 PM61 °FScattered clouds.23 mph36%29.36 "HgN/A
12:30 PM61 °FPassing clouds.23 mph39%29.36 "HgN/A
12:00 PM59 °FPassing clouds.20 mph48%29.36 "HgN/A
11:30 AM59 °FPassing clouds.24 mph45%29.33 "HgN/A
11:00 AM57 °FPassing clouds.18 mph55%29.33 "HgN/A
10:30 AM55 °FPassing clouds.14 mph67%29.33 "HgN/A
10:00 AM54 °FPassing clouds.12 mph77%29.30 "HgN/A
9:30 AM52 °FPassing clouds.10 mph82%29.27 "HgN/A
9:00 AM52 °FPassing clouds.7 mph82%29.24 "HgN/A
Weather by CustomWeather, © 2014

See weather overviewHow to use our weather pages